Location: Cucq
(50.4773°N, 1.6202°E)
Time: 15:44:29
(UTC+00:00)

Cosmos 2333 Rocket - Pass Details

Date: 07 August 2020
Orbit: 838 x 864 km, 70.8° (Epoch: 25 September)

Event Time Altitude Azimuth Distance (km) Brightness Sun altitude
Rises 00:39:20 0° 327° (NNW) 3,456 6.1 -22.6°
Reaches altitude 10° 00:41:52 10° 322° (NW) 2,515 5.2 -22.5°
Maximum altitude 00:47:24 48° 250° (WSW) 1,116 2.6 -22.4°
Enters shadow 00:48:16 45° 223° (SW) 1,170 2.5 -22.3°
